| time (UTC) | temp F | wind direction | speed MPH | gust MPH | rain 1hr in | rain 24hr in | rain mn in | humidity % | barometer mb |
| 20260504045819 | 52 | 135 | 1.0 | 3.0 | 0.00 | 0.00 | 0.00 | 74 | 1016.3 |
| 20260504044819 | 51 | 0.0 | 0.0 | 0.00 | 0.00 | 0.00 | 74 | 1016.3 | |
| 20260504043819 | 50 | 0.0 | 0.0 | 0.00 | 0.00 | 0.00 | 75 | 1016.3 | |
| 20260504042819 | 50 | 0.0 | 0.0 | 0.00 | 0.00 | 0.00 | 75 | 1016.1 | |
| 20260504041819 | 50 | 180 | 1.0 | 4.0 | 0.00 | 0.00 | 0.00 | 76 | 1016.1 |
| 20260504040819 | 49 | 0.0 | 1.0 | 0.00 | 0.00 | 0.00 | 76 | 1016.0 | |
| 20260504035818 | 49 | 180 | 1.0 | 2.0 | 0.00 | 0.00 | 0.00 | 79 | 1015.9 |
| 20260504034818 | 49 | 0.0 | 1.0 | 0.00 | 0.00 | 0.00 | 79 | 1015.8 | |
| 20260504033818 | 49 | 0.0 | 0.0 | 0.00 | 0.00 | 0.00 | 78 | 1015.7 | |
| 20260504032818 | 49 | 0.0 | 0.0 | 0.00 | 0.00 | 0.00 | 80 | 1015.7 | |
| 20260504031819 | 48 | 0.0 | 0.0 | 0.00 | 0.00 | 0.00 | 80 | 1015.6 | |
| 20260504030818 | 48 | 0.0 | 0.0 | 0.00 | 0.00 | 0.00 | 81 | 1015.6 | |
| 20260504025818 | 48 | 0.0 | 0.0 | 0.00 | 0.00 | 0.00 | 81 | 1015.6 | |
| 20260504024821 | 49 | 0.0 | 0.0 | 0.00 | 0.00 | 0.00 | 81 | 1015.5 | |
| 20260504023838 | 49 | 0.0 | 0.0 | 0.00 | 0.00 | 0.00 | 81 | 1015.5 | |
| 20260504022820 | 49 | 0.0 | 0.0 | 0.00 | 0.00 | 0.00 | 80 | 1015.6 | |
| 20260504021818 | 49 | 0.0 | 0.0 | 0.00 | 0.00 | 0.00 | 78 | 1015.5 | |
| 20260504020820 | 50 | 180 | 1.0 | 2.0 | 0.00 | 0.00 | 0.00 | 77 | 1015.5 |
| 20260504015818 | 50 | 180 | 1.0 | 1.0 | 0.00 | 0.00 | 0.00 | 75 | 1015.5 |
| 20260504014818 | 51 | 180 | 1.0 | 2.0 | 0.00 | 0.00 | 0.00 | 73 | 1015.5 |
| 20260504013900 | 51 | 203 | 2.0 | 3.0 | 0.00 | 0.00 | 0.00 | 74 | 1015.4 |
| 20260504012818 | 50 | 0.0 | 0.0 | 0.00 | 0.00 | 0.00 | 70 | 1015.4 | |
| 20260504011840 | 51 | 0.0 | 0.0 | 0.00 | 0.00 | 0.00 | 68 | 1015.2 | |
| 20260504010820 | 51 | 0.0 | 0.0 | 0.00 | 0.00 | 0.00 | 65 | 1015.1 | |
| 20260504005838 | 52 | 0.0 | 0.0 | 0.00 | 0.00 | 0.00 | 62 | 1015.1 | |
| 20260504004838 | 52 | 0.0 | 0.0 | 0.00 | 0.00 | 0.00 | 61 | 1015.0 | |
| 20260504003820 | 53 | 0.0 | 0.0 | 0.00 | 0.00 | 0.00 | 60 | 1014.9 | |
| 20260504002840 | 53 | 0.0 | 1.0 | 0.00 | 0.00 | 0.00 | 58 | 1014.8 | |
| 20260504001900 | 54 | 338 | 1.0 | 1.0 | 0.00 | 0.00 | 0.00 | 56 | 1014.9 |
| 20260504000820 | 55 | 338 | 1.0 | 2.0 | 0.00 | 0.00 | 0.00 | 52 | 1014.7 |
| 20260503235818 | 56 | 0.0 | 0.0 | 0.00 | 0.00 | 0.00 | 51 | 1014.5 | |
| 20260503234818 | 57 | 0.0 | 0.0 | 0.00 | 0.00 | 0.00 | 48 | 1014.3 | |
| 20260503233818 | 58 | 0.0 | 0.0 | 0.00 | 0.00 | 0.00 | 45 | 1014.3 | |
| 20260503232820 | 59 | 0.0 | 0.0 | 0.00 | 0.00 | 0.00 | 44 | 1014.3 | |
| 20260503231819 | 60 | 0.0 | 0.0 | 0.00 | 0.00 | 0.00 | 44 | 1014.3 | |
| 20260503230818 | 60 | 0.0 | 1.0 | 0.00 | 0.00 | 0.00 | 41 | 1014.4 | |
| 20260503225818 | 60 | 0.0 | 2.0 | 0.00 | 0.00 | 0.00 | 41 | 1014.4 | |
| 20260503224820 | 61 | 315 | 1.0 | 1.0 | 0.00 | 0.00 | 0.00 | 39 | 1014.3 |
| 20260503223820 | 61 | 315 | 2.0 | 3.0 | 0.00 | 0.00 | 0.00 | 40 | 1014.3 |
| 20260503222820 | 61 | 315 | 1.0 | 2.0 | 0.00 | 0.00 | 0.00 | 41 | 1014.3 |
| 20260503221819 | 61 | 293 | 1.0 | 3.0 | 0.00 | 0.00 | 0.00 | 40 | 1014.4 |
| 20260503220820 | 61 | 248 | 1.0 | 2.0 | 0.00 | 0.00 | 0.00 | 42 | 1014.4 |
| 20260503215819 | 61 | 248 | 2.0 | 3.0 | 0.00 | 0.00 | 0.00 | 40 | 1014.5 |
| 20260503214820 | 61 | 293 | 2.0 | 3.0 | 0.00 | 0.00 | 0.00 | 40 | 1014.4 |
| 20260503213940 | 61 | 293 | 1.0 | 2.0 | 0.00 | 0.00 | 0.00 | 40 | 1014.5 |
| 20260503212820 | 61 | 293 | 2.0 | 3.0 | 0.00 | 0.00 | 0.00 | 39 | 1014.5 |
| 20260503211820 | 61 | 315 | 1.0 | 2.0 | 0.00 | 0.00 | 0.00 | 41 | 1014.5 |
| 20260503210820 | 61 | 315 | 2.0 | 4.0 | 0.00 | 0.00 | 0.00 | 41 | 1014.4 |
| 20260503205840 | 61 | 315 | 3.0 | 4.0 | 0.00 | 0.00 | 0.00 | 42 | 1014.4 |
| 20260503204840 | 61 | 293 | 3.0 | 4.0 | 0.00 | 0.00 | 0.00 | 40 | 1014.5 |
| 20260503203819 | 62 | 338 | 2.0 | 4.0 | 0.00 | 0.00 | 0.00 | 39 | 1014.5 |
| 20260503202819 | 62 | 315 | 5.0 | 9.0 | 0.00 | 0.00 | 0.00 | 39 | 1014.6 |
| 20260503201819 | 62 | 315 | 2.0 | 4.0 | 0.00 | 0.00 | 0.00 | 38 | 1014.8 |
| 20260503200819 | 63 | 315 | 7.0 | 11.0 | 0.00 | 0.00 | 0.00 | 41 | 1014.9 |
| 20260503195819 | 64 | 315 | 2.0 | 7.0 | 0.00 | 0.00 | 0.00 | 37 | 1015.0 |
| 20260503194819 | 64 | 315 | 5.0 | 7.0 | 0.00 | 0.00 | 0.00 | 40 | 1015.3 |
| 20260503193839 | 65 | 315 | 11.0 | 16.0 | 0.00 | 0.00 | 0.00 | 41 | 1015.1 |
| 20260503192839 | 64 | 203 | 2.0 | 3.0 | 0.00 | 0.00 | 0.00 | 38 | 1015.3 |
| 20260503191819 | 65 | 293 | 4.0 | 8.0 | 0.00 | 0.00 | 0.00 | 38 | 1015.5 |
| 20260503190819 | 64 | 293 | 5.0 | 8.0 | 0.00 | 0.00 | 0.00 | 44 | 1015.5 |
| 20260503185839 | 65 | 293 | 4.0 | 8.0 | 0.00 | 0.00 | 0.00 | 44 | 1015.5 |
| 20260503184819 | 64 | 315 | 9.0 | 14.0 | 0.00 | 0.00 | 0.00 | 42 | 1015.6 |
| 20260503183819 | 64 | 293 | 4.0 | 6.0 | 0.00 | 0.00 | 0.00 | 42 | 1015.7 |
| 20260503182819 | 65 | 315 | 6.0 | 13.0 | 0.00 | 0.00 | 0.00 | 43 | 1015.9 |
| 20260503181819 | 64 | 315 | 6.0 | 10.0 | 0.00 | 0.00 | 0.00 | 44 | 1015.8 |
| 20260503180819 | 63 | 315 | 4.0 | 7.0 | 0.00 | 0.00 | 0.00 | 42 | 1015.9 |
| 20260503175819 | 63 | 270 | 3.0 | 7.0 | 0.00 | 0.00 | 0.00 | 42 | 1015.8 |
| 20260503174819 | 64 | 315 | 10.0 | 14.0 | 0.00 | 0.00 | 0.00 | 41 | 1015.9 |
| 20260503173839 | 64 | 315 | 6.0 | 9.0 | 0.00 | 0.00 | 0.00 | 43 | 1016.1 |
| 20260503172839 | 63 | 315 | 9.0 | 13.0 | 0.00 | 0.00 | 0.00 | 42 | 1016.2 |
| 20260503171819 | 63 | 315 | 8.0 | 11.0 | 0.00 | 0.00 | 0.00 | 43 | 1016.2 |
| 20260503170819 | 64 | 315 | 6.0 | 12.0 | 0.00 | 0.00 | 0.00 | 41 | 1016.3 |
| 20260503150818 | 57 | 338 | 9.0 | 12.0 | 0.00 | 0.00 | 0.00 | 48 | 1016.6 |
| 20260503130818 | 50 | 315 | 6.0 | 10.0 | 0.00 | 0.00 | 0.00 | 60 | 1016.5 |
| 20260503110818 | 46 | 315 | 9.0 | 12.0 | 0.00 | 0.00 | 0.00 | 70 | 1015.0 |
| 20260503080838 | 47 | 315 | 7.0 | 12.0 | 0.00 | 0.00 | 0.00 | 71 | 1013.3 |
| 20260503072840 | 48 | 315 | 8.0 | 12.0 | 0.00 | 0.00 | 0.00 | 68 | 1012.8 |
| 20260503071820 | 48 | 315 | 8.0 | 14.0 | 0.00 | 0.00 | 0.00 | 69 | 1012.7 |
| 20260503070820 | 48 | 315 | 8.0 | 10.0 | 0.00 | 0.00 | 0.00 | 68 | 1012.7 |